Wetbulb
48.82 49.32 49.69 50.09 51.44 50.68 50.69 51.89 51.14 52.25 52.40 53.34 54.20 54.58 55.11 56.15 56.76 57.35 59.58 60.24 59.13 58.66 59.29 59.55 60.10 61.51 63.17 63.70 63.51 63.29 62.81 63.66 62.03 63.29 64.74 66.28 65.76 65.39 67.72 68.26 68.17 66.95 66.80
48.64 49.04 49.59 49.49 49.83 49.79 50.15 51.05 51.55 51.55 51.63 52.97 53.09 53.34 54.26 55.67 55.90 56.16 57.79 57.39 56.33 56.53 56.47 57.61 58.53 60.75 62.04 61.27 60.46 60.39 60.88 62.78 62.00 59.65 62.92 63.75 63.88 64.92 67.42 67.44 67.58 67.99 67.49
49.36 48.89 49.03 49.11 47.83 47.43 48.21 48.91 49.70 50.34 50.47 51.75 52.03 52.12 52.53 53.53 53.81 55.37 54.98 54.68 54.27 54.13 54.02 54.83 57.33 57.76 57.15 57.30 58.93 57.36 58.91 60.73 59.81 60.14 59.77 63.04 63.68 62.70 62.92 65.00 65.72 66.68 67.70
50.13 49.88 48.84 48.60 48.37 47.98 48.27 48.59 49.03 49.49 49.17 50.09 51.49 52.14 52.41 52.92 53.16 51.95 52.03 51.70 51.15 51.63 52.92 53.19 54.64 55.33 55.59 55.96 56.45 56.09 58.10 56.20 56.88 56.44 57.34 58.95 60.80 61.66 61.20 60.48 59.97 62.57 64.30
49.89 48.61 48.26 48.85 48.74 48.84 48.63 48.93 49.38 50.08 50.33 51.09 51.55 51.87 51.95 52.53 53.73 51.09 50.62 50.43 50.13 50.53 52.20 52.99 53.78 55.64 57.61 57.30 57.14 57.10 57.23 56.72 56.26 56.36 54.96 55.55 56.26 57.80 58.20 60.91 58.91 58.59 60.12
50.90 49.52 51.16 50.03 50.46 49.19 48.81 49.28 48.98 49.39 50.24 50.00 49.62 49.90 49.89 52.50 50.51 50.51 50.69 49.23 50.42 49.78 49.76 52.22 53.85 56.27 55.89 56.12 55.56 55.70 55.51 56.36 55.90 54.56 54.87 53.18 53.69 55.54 57.40 57.84 57.36 56.32 55.74
51.90 51.95 52.09 51.07 51.25 50.57 50.33 49.03 48.73 47.93 47.48 47.43 47.99 48.60 48.54 49.53 49.45 48.82 49.50 50.33 51.04 50.09 50.73 51.22 52.24 54.66 54.96 56.15 54.21 53.56 54.74 54.19 55.01 55.74 53.37 53.82 54.28 55.10 56.58 57.23 56.02 56.00 56.16
51.51 51.26 51.14 51.14 50.43 51.34 50.52 48.97 46.98 46.96 46.96 47.28 47.86 48.13 48.17 50.48 49.17 48.00 48.66 49.33 50.42 50.59 50.87 50.38 50.82 51.02 48.20 48.48 50.91 53.14 53.48 53.37 53.92 55.64 53.92 52.87 52.88 53.79 54.13 55.26 54.83 53.04 51.07
50.43 50.28 50.14 49.58 48.65 49.18 47.85 46.53 46.34 46.06 46.23 46.95 47.74 48.35 48.30 49.43 48.08 46.23 47.35 48.28 48.84 49.52 50.50 49.10 48.79 48.99 45.55 44.39 50.21 49.34 49.54 49.96 51.91 50.98 49.61 48.49 47.36 47.17 48.41 51.27 50.74 48.51 46.40
49.24 49.35 49.26 49.19 48.39 47.30 47.25 46.52 46.41 45.88 46.80 47.89 47.68 48.03 48.98 48.55 45.52 44.83 46.25 48.74 48.43 47.73 48.02 47.99 45.33 45.39 43.60 43.07 46.27 46.45 45.93 46.63 48.29 48.96 49.06 49.14 48.95 49.58 49.42 50.71 52.25 50.06 47.93
48.35 48.27 47.89 47.03 46.33 45.73 45.36 45.18 45.84 45.45 45.46 45.04 45.25 45.71 46.36 46.62 46.09 44.08 43.83 44.89 44.17 44.95 46.13 47.39 48.37 44.14 43.18 42.69 42.60 43.47 44.32 46.38 46.38 46.19 46.84 48.08 48.61 49.21 49.49 49.52 51.84 52.01 49.98
46.42 46.37 45.90 44.83 45.65 46.39 44.32 44.32 44.68 43.47 42.85 42.51 42.28 42.88 44.04 45.50 44.51 43.68 42.66 43.16 45.23 44.72 45.27 47.17 45.78 42.57 41.82 42.00 42.45 42.83 42.42 43.13 43.13 43.94 45.43 46.80 47.29 48.36 49.37 49.79 50.60 51.91 54.42
45.41 44.38 44.12 44.67 44.48 44.38 43.53 43.08 43.19 43.33 43.22 42.20 41.88 41.01 41.42 43.13 42.07 43.00 42.31 42.28 43.35 42.70 43.79 44.45 42.84 41.88 41.90 42.78 43.53 43.74 43.65 43.59 43.11 43.16 44.90 46.29 48.02 49.77 50.66 50.54 51.60 52.07 53.30
42.82 42.78 42.53 41.53 42.33 43.14 43.56 43.24 41.55 41.34 40.75 41.69 41.10 40.13 40.29 40.93 41.10 40.97 41.58 40.33 41.86 42.20 43.51 41.13 42.47 42.63 42.58 43.48 43.53 44.38 44.73 44.37 45.07 45.64 46.14 48.13 49.37 49.61 49.56 49.94 50.12 50.02 49.61
41.93 41.80 40.66 40.34 40.54 41.09 41.87 42.14 45.01 43.96 42.89 43.98 43.32 42.36 41.36 42.41 41.24 39.98 39.75 40.94 40.90 41.62 40.24 41.50 41.52 42.00 42.87 43.01 43.55 44.82 46.08 46.42 46.08 46.65 46.71 47.25 48.39 48.32 48.02 48.83 48.81 48.65 47.50
40.46 40.39 39.70 39.47 39.27 40.18 40.00 42.82 43.33 42.59 42.12 40.59 39.47 40.98 42.36 41.23 39.00 39.37 39.33 38.59 38.34 38.72 41.94 43.03 43.29 43.30 43.33 43.86 44.30 43.80 45.09 45.42 45.34 45.41 47.27 47.16 45.35 45.48 45.61 46.82 46.93 45.87 45.43
38.70 39.46 38.62 39.34 40.65 43.51 44.01 43.27 41.55 42.86 42.73 40.55 39.46 39.28 38.48 38.20 38.32 37.97 38.51 38.01 37.55 39.37 41.11 41.95 42.07 42.37 42.49 42.60 42.90 43.27 43.34 44.15 42.82 42.62 43.56 46.21 46.89 47.05 46.02 45.82 45.01 45.03 44.87
39.38 40.88 39.49 41.70 41.93 41.77 42.39 42.46 42.07 41.21 37.40 36.65 38.99 38.71 38.92 38.71 38.33 37.94 38.14 39.67 41.89 42.05 41.96 41.55 41.31 41.29 41.53 41.75 42.07 42.33 43.07 43.63 43.86 44.02 44.36 45.42 45.48 44.94 44.11 44.62 44.00 42.68 43.17
39.52 41.04 38.98 38.19 38.59 39.06 39.16 38.65 38.52 40.60 36.58 35.98 36.40 37.69 37.29 39.07 38.84 39.00 39.67 42.03 41.06 41.42 41.74 41.49 41.94 41.84 41.61 41.48 40.24 40.29 41.57 42.74 41.99 43.12 43.45 43.80 43.93 43.57 42.88 43.74 43.45 37.08 37.63
40.84 40.90 39.83 38.91 38.28 37.54 37.62 37.36 37.70 36.80 36.37 38.89 40.14 39.10 38.43 39.55 40.45 40.43 40.37 41.71 41.75 41.06 41.37 41.49 41.91 40.37 39.50 39.73 39.26 39.27 40.63 41.01 42.02 42.59 42.17 43.01 42.82 42.86 41.86 42.22 42.55 42.47 42.98
39.98 40.09 36.05 38.91 39.52 39.80 37.66 37.26 37.24 36.62 35.39 34.67 36.60 39.02 33.38 38.96 39.51 40.08 40.91 40.35 38.51 39.99 37.80 37.77 38.22 37.70 37.65 37.75 37.68 37.53 38.33 39.02 41.20 40.82 40.19 38.90 39.64 40.45 41.30 41.61 41.91 42.24 42.23
39.13 39.59 40.57 40.41 42.13 40.17 38.74 37.78 37.00 36.58 35.87 34.89 37.59 39.52 34.97 40.78 40.87 41.11 41.41 41.74 41.59 40.81 41.43 40.47 39.99 39.51 36.51 36.36 35.96 34.75 34.92 35.64 37.18 38.41 38.20 38.66 39.48 40.07 40.24 40.22 40.29 40.47 40.43
37.91 39.03 39.46 38.74 39.35 37.43 37.17 37.19 36.28 36.19 35.62 35.30 35.89 37.17 38.00 38.85 39.00 39.47 39.72 39.97 40.77 41.99 42.22 39.99 39.01 35.58 35.21 34.75 34.17 32.98 31.63 33.11 33.99 34.95 35.22 36.99 38.63 38.89 39.28 38.96 38.95 38.75 38.90
38.24 39.46 36.88 37.29 37.50 35.54 34.56 33.54 34.85 35.25 36.00 36.33 35.57 35.46 34.82 35.88 36.50 36.53 37.32 37.88 39.06 40.15 38.38 37.98 35.90 34.45 33.23 32.47 32.50 32.56 32.57 32.50 32.10 32.86 34.82 35.83 36.83 37.46 39.57 39.98 39.51 39.11 38.42
39.11 36.54 35.48 35.06 35.86 33.60 33.87 33.26 33.35 34.41 34.05 33.79 33.77 33.08 32.33 33.02 33.30 34.55 35.13 35.63 35.94 37.15 37.70 38.17 36.75 35.11 33.16 32.71 32.46 32.11 31.56 31.30 31.34 31.90 33.90 35.04 35.98 37.42 39.28 40.17 39.67 38.64 37.88
38.57 36.44 35.77 34.18 34.52 34.22 33.30 32.65 32.83 33.31 33.03 33.01 32.54 31.70 31.98 31.95 32.87 33.70 33.62 34.15 34.50 34.65 35.34 35.48 36.24 35.65 34.41 33.34 32.60 31.18 31.35 30.98 30.79 31.25 33.35 36.12 37.34 39.06 39.69 38.84 39.06 37.60 37.03
MSLP
1020.38 1020.25 1020.11 1019.93 1019.75 1019.63 1019.48 1019.26 1019.00 1018.62 1018.21 1017.89 1017.45 1016.85 1016.30 1015.88 1015.61 1015.51 1015.31 1014.60 1014.26 1013.95 1013.54 1013.28 1013.02 1012.26 1011.80 1011.50 1011.70 1011.77 1012.04 1011.41 1011.15 1010.53 1010.26 1009.87 1009.93 1009.87 1009.91 1009.54 1009.67 1010.64 1010.36
1020.24 1020.11 1020.00 1019.91 1019.80 1019.66 1019.49 1019.24 1019.01 1018.77 1018.37 1017.94 1017.59 1017.21 1016.76 1016.25 1015.96 1015.60 1015.49 1015.12 1014.79 1014.44 1014.29 1013.72 1013.29 1012.67 1012.20 1011.91 1011.81 1011.90 1011.84 1011.72 1010.99 1010.88 1010.39 1009.90 1009.62 1009.70 1009.63 1009.45 1009.41 1009.70 1009.73
1019.97 1019.91 1019.79 1019.69 1019.58 1019.38 1019.23 1019.10 1019.12 1018.91 1018.48 1018.09 1017.77 1017.55 1017.11 1016.77 1016.19 1015.94 1015.89 1015.79 1015.32 1014.99 1014.71 1014.25 1013.72 1013.26 1012.85 1012.48 1012.07 1011.93 1011.72 1011.63 1011.47 1011.12 1010.89 1010.29 1009.47 1009.46 1009.66 1009.49 1009.51 1009.64 1009.42
1019.59 1019.42 1019.36 1019.09 1018.98 1018.88 1018.76 1018.77 1018.61 1018.59 1018.55 1018.27 1017.78 1017.47 1017.31 1016.84 1016.59 1016.12 1015.95 1015.81 1015.62 1015.35 1014.88 1014.31 1013.91 1013.55 1013.11 1012.54 1012.12 1012.04 1011.91 1011.70 1011.61 1011.45 1011.01 1010.70 1010.13 1009.58 1009.81 1009.60 1009.51 1009.59 1009.61
1019.62 1019.14 1018.86 1018.57 1018.45 1018.38 1018.31 1018.27 1018.34 1018.25 1017.90 1017.72 1017.79 1017.64 1017.36 1017.02 1016.40 1016.14 1015.82 1015.80 1015.43 1015.07 1014.81 1014.19 1013.70 1013.43 1013.01 1012.52 1012.46 1012.22 1011.97 1011.92 1011.72 1011.71 1011.32 1011.21 1010.89 1010.40 1010.46 1010.21 1009.76 1009.61 1009.31
1019.14 1018.89 1018.27 1018.28 1018.14 1018.01 1018.05 1018.05 1017.98 1017.91 1017.75 1017.77 1017.60 1017.49 1017.35 1016.89 1016.32 1015.99 1015.80 1015.68 1015.20 1015.09 1014.90 1014.41 1013.70 1013.19 1012.84 1012.48 1012.20 1012.28 1012.08 1012.02 1011.92 1011.99 1011.40 1011.56 1011.48 1011.13 1010.92 1010.66 1010.26 1009.93 1009.91
1018.60 1018.53 1018.34 1018.14 1017.88 1017.73 1017.80 1017.99 1018.16 1018.04 1017.90 1017.73 1017.51 1017.30 1017.13 1016.68 1016.16 1015.81 1015.39 1015.35 1015.25 1015.16 1014.82 1014.34 1013.87 1013.35 1012.98 1012.59 1012.37 1012.01 1012.23 1012.51 1012.33 1012.16 1011.98 1012.03 1011.94 1011.78 1011.33 1010.84 1010.52 1010.27 1009.96
1018.66 1018.84 1018.64 1018.40 1018.41 1018.18 1018.20 1018.27 1018.26 1018.13 1017.94 1017.67 1017.37 1017.07 1016.81 1016.40 1015.97 1015.59 1015.28 1015.31 1015.28 1015.08 1014.73 1014.58 1014.10 1013.81 1013.89 1013.66 1013.33 1012.95 1012.56 1012.54 1012.57 1012.41 1012.27 1012.10 1012.00 1011.43 1011.52 1011.01 1010.78 1010.49 1009.97
1019.18 1019.15 1019.17 1018.89 1018.86 1018.78 1018.74 1018.64 1018.14 1018.03 1017.76 1017.54 1017.31 1016.97 1016.66 1016.21 1015.95 1015.57 1015.40 1015.34 1015.21 1015.03 1014.69 1014.56 1014.48 1014.42 1014.36 1013.98 1013.71 1013.35 1012.84 1012.70 1012.27 1012.17 1012.18 1011.88 1011.43 1011.02 1011.00 1010.88 1010.56 1010.62 1010.34
1019.08 1019.28 1019.33 1019.16 1018.93 1018.87 1018.82 1018.65 1018.17 1018.08 1017.78 1017.41 1017.15 1016.84 1016.63 1016.36 1016.21 1015.74 1015.43 1015.48 1015.49 1015.29 1014.78 1014.71 1014.47 1014.54 1014.34 1014.04 1013.82 1013.69 1013.05 1012.79 1012.41 1011.81 1011.49 1011.13 1010.77 1010.47 1010.30 1010.49 1010.33 1010.37 1010.33
1019.58 1019.53 1019.55 1019.49 1019.22 1018.66 1018.72 1018.51 1018.22 1017.93 1017.77 1017.45 1017.36 1016.98 1016.81 1016.69 1016.68 1016.37 1016.06 1015.83 1015.77 1015.50 1015.12 1014.91 1014.71 1014.42 1014.12 1013.78 1013.60 1013.48 1013.05 1012.59 1012.22 1011.90 1011.39 1011.02 1010.55 1010.07 1009.81 1009.81 1009.80 1009.98 1010.00
1020.11 1019.86 1019.77 1019.67 1019.09 1018.74 1018.61 1018.53 1018.24 1017.87 1018.05 1017.77 1017.59 1017.33 1016.95 1016.89 1016.78 1016.66 1016.28 1016.16 1015.86 1015.50 1015.06 1014.69 1014.46 1014.17 1013.77 1013.42 1013.02 1012.65 1012.32 1012.08 1011.88 1011.72 1011.41 1010.86 1010.33 1009.83 1009.46 1009.37 1009.10 1008.90 1008.58
1020.32 1020.31 1020.07 1019.81 1019.56 1018.97 1018.80 1018.76 1018.45 1018.22 1018.26 1018.02 1017.72 1017.60 1017.33 1016.94 1016.89 1016.63 1016.31 1016.09 1015.73 1015.44 1015.02 1014.59 1014.32 1013.83 1013.32 1012.85 1012.57 1012.20 1011.77 1011.60 1011.53 1011.22 1010.80 1010.28 1009.85 1009.30 1009.06 1008.85 1008.60 1008.14 1007.75
1020.60 1020.48 1020.52 1020.38 1019.62 1019.26 1019.01 1018.80 1018.79 1018.58 1018.40 1018.14 1017.93 1017.74 1017.37 1017.18 1017.07 1016.76 1016.46 1015.95 1015.48 1015.21 1014.97 1014.56 1014.09 1013.61 1013.21 1012.82 1012.39 1011.91 1011.65 1011.47 1011.25 1010.89 1010.44 1009.83 1009.38 1009.12 1008.91 1008.53 1008.49 1008.33 1008.16
1020.92 1020.99 1020.76 1020.42 1020.12 1019.77 1019.43 1019.24 1018.92 1018.73 1018.62 1018.22 1017.98 1017.77 1017.53 1017.23 1017.18 1016.91 1016.56 1016.07 1015.55 1015.19 1014.97 1014.51 1014.01 1013.68 1013.33 1012.87 1012.53 1012.08 1011.75 1011.44 1011.13 1010.73 1010.22 1009.73 1009.32 1009.08 1008.84 1008.63 1008.64 1008.64 1008.69
1021.02 1020.94 1020.82 1020.66 1020.38 1020.10 1019.72 1019.24 1018.91 1018.60 1018.41 1018.36 1018.19 1017.84 1017.57 1017.40 1017.02 1016.65 1016.29 1015.86 1015.41 1015.13 1014.84 1014.62 1014.19 1013.93 1013.58 1013.28 1012.89 1012.51 1012.06 1011.79 1011.55 1011.15 1010.71 1010.22 1009.84 1009.52 1009.25 1008.85 1008.77 1008.71 1008.72
1021.09 1021.02 1020.95 1020.89 1020.58 1020.18 1019.76 1019.41 1019.15 1018.70 1018.59 1018.39 1018.25 1017.99 1017.78 1017.38 1016.80 1016.54 1016.28 1015.83 1015.43 1015.13 1015.06 1014.72 1014.39 1014.11 1013.81 1013.48 1013.08 1012.69 1012.30 1011.96 1011.70 1011.44 1011.09 1010.55 1010.09 1009.70 1009.39 1008.98 1008.74 1008.55 1008.52
1021.11 1021.10 1021.08 1020.96 1020.70 1020.38 1020.02 1019.65 1019.39 1019.15 1019.01 1018.73 1018.23 1018.00 1017.67 1017.16 1016.64 1016.33 1016.09 1015.79 1015.52 1015.20 1015.17 1014.94 1014.63 1014.33 1013.99 1013.62 1013.27 1012.87 1012.39 1011.91 1011.55 1011.22 1010.80 1010.43 1010.13 1009.87 1009.52 1009.13 1008.68 1008.37 1008.25
1021.25 1021.10 1020.98 1020.84 1020.62 1020.35 1020.06 1019.76 1019.52 1019.25 1019.06 1018.83 1018.46 1018.02 1017.71 1017.14 1016.62 1016.25 1016.07 1016.03 1015.88 1015.61 1015.37 1015.06 1014.67 1014.33 1014.03 1013.72 1013.45 1013.15 1012.80 1012.29 1011.87 1011.38 1010.98 1010.55 1010.26 1009.93 1009.52 1009.20 1008.77 1008.39 1008.12
1021.11 1020.90 1020.70 1020.63 1020.47 1020.31 1020.12 1019.83 1019.55 1019.45 1019.13 1018.81 1018.58 1018.35 1018.01 1017.39 1017.02 1016.66 1016.27 1015.98 1015.79 1015.63 1015.40 1015.16 1014.79 1014.60 1014.38 1013.98 1013.65 1013.27 1012.85 1012.32 1011.80 1011.34 1011.06 1010.58 1010.19 1009.86 1009.50 1009.09 1008.67 1008.20 1007.76
1021.01 1020.76 1020.58 1020.45 1020.17 1019.98 1019.94 1019.82 1019.73 1019.58 1019.43 1019.15 1018.81 1018.41 1018.13 1017.77 1017.32 1016.90 1016.52 1016.05 1015.79 1015.39 1015.23 1015.08 1014.95 1014.75 1014.51 1014.19 1013.77 1013.38 1012.93 1012.44 1011.81 1011.40 1011.01 1010.67 1010.26 1009.68 1009.22 1008.78 1008.32 1007.86 1007.45
1020.85 1020.53 1020.05 1019.84 1019.71 1019.67 1019.61 1019.68 1019.61 1019.51 1019.31 1019.18 1018.83 1018.44 1018.08 1017.76 1017.37 1017.00 1016.60 1015.89 1015.51 1015.26 1015.07 1015.05 1015.03 1014.96 1014.79 1014.42 1014.02 1013.55 1013.08 1012.54 1011.90 1011.31 1010.77 1010.27 1009.81 1009.35 1008.89 1008.42 1007.94 1007.46 1006.98
1020.59 1020.18 1019.78 1019.48 1019.29 1019.46 1019.35 1019.57 1019.64 1019.56 1019.37 1019.19 1019.04 1018.82 1018.42 1018.18 1017.73 1017.19 1016.66 1016.11 1015.56 1015.20 1015.12 1015.25 1015.36 1015.27 1014.93 1014.50 1013.98 1013.58 1013.14 1012.54 1011.92 1011.35 1010.72 1010.04 1009.46 1008.98 1008.49 1007.92 1007.38 1006.81 1006.29
1020.36 1020.10 1020.00 1019.66 1019.62 1019.64 1019.62 1019.57 1019.51 1019.50 1019.50 1019.35 1019.24 1019.06 1018.82 1018.45 1018.07 1017.61 1017.13 1016.64 1016.16 1015.87 1015.63 1015.54 1015.65 1015.53 1015.09 1014.47 1013.85 1013.32 1012.80 1012.30 1011.73 1011.02 1010.46 1009.86 1009.17 1008.54 1007.91 1007.21 1006.62 1006.06 1005.51
1020.32 1020.21 1020.01 1019.96 1019.88 1019.94 1019.86 1019.79 1019.69 1019.70 1019.68 1019.51 1019.39 1019.22 1019.05 1018.73 1018.36 1018.01 1017.62 1017.22 1016.84 1016.49 1016.22 1015.90 1015.71 1015.40 1015.02 1014.45 1013.82 1013.23 1012.53 1011.82 1011.22 1010.60 1009.90 1009.34 1008.74 1008.08 1007.36 1006.60 1005.89 1005.17 1004.63
1020.11 1020.04 1019.89 1019.97 1020.00 1020.07 1020.07 1020.03 1019.99 1019.94 1019.86 1019.71 1019.58 1019.44 1019.26 1019.02 1018.71 1018.38 1018.05 1017.71 1017.36 1017.01 1016.60 1016.22 1015.80 1015.39 1014.96 1014.45 1013.89 1013.21 1012.40 1011.66 1010.96 1010.14 1009.51 1008.81 1008.27 1007.57 1006.87 1006.17 1005.31 1004.65 1003.94
Wind_Speed
2 1 2 3 4 4 4 4 4 5 6 6 6 7 8 10 6 4 7 7 8 7 9 7 7 5 3 2 2 2 2 3 4 3 3 3 3 5 5 6 6 10 8
2 2 2 2 2 3 4 4 4 4 5 5 6 6 7 7 9 9 7 7 7 9 8 9 9 6 5 2 0 1 1 3 0 3 3 1 4 5 6 8 8 9 9
4 4 5 4 1 1 2 2 3 3 4 5 5 6 7 7 6 5 5 6 6 6 7 8 7 7 8 4 3 2 1 2 1 1 3 2 2 1 1 3 5 6 5
6 6 6 6 4 4 4 4 4 3 3 3 4 5 6 6 6 5 5 5 5 5 6 6 7 6 6 7 5 4 3 2 3 2 2 3 2 2 2 2 1 3 8
7 7 7 7 6 5 5 6 5 5 4 3 4 5 6 6 5 6 5 6 6 6 7 6 6 10 11 5 4 5 3 2 2 3 2 3 3 3 3 3 2 3 3
8 8 8 6 7 6 6 5 5 5 4 4 4 4 6 5 10 8 7 5 5 6 6 7 6 10 6 7 5 5 2 4 3 2 3 1 3 2 3 2 2 2 3
5 6 5 6 5 4 4 4 3 5 4 5 5 5 6 6 10 11 9 4 4 6 6 6 6 7 9 6 8 9 5 2 7 1 2 2 3 2 4 3 1 0 2
7 5 6 7 7 6 5 4 5 3 4 4 5 7 6 6 10 10 6 4 4 6 6 6 5 6 7 7 5 4 5 4 1 2 2 5 5 5 3 2 3 3 4
5 6 6 6 6 7 6 6 4 3 4 4 4 7 7 7 10 9 6 5 5 6 5 3 4 4 8 11 4 4 4 4 6 4 6 9 10 11 7 2 3 1 3
4 3 3 4 4 4 5 6 3 3 4 4 6 6 7 5 10 10 6 3 4 4 6 5 7 4 7 8 5 5 5 5 6 9 9 8 5 7 8 6 3 4 2
4 4 5 4 5 5 5 4 4 4 5 5 6 6 6 6 5 10 10 5 3 3 3 4 3 8 8 6 3 4 5 7 10 6 6 7 5 5 4 4 5 5 4
5 5 5 6 6 6 6 5 6 5 5 5 5 5 4 4 7 7 9 7 7 4 5 3 4 10 8 11 7 9 11 8 4 4 4 6 4 4 4 5 6 6 7
5 6 6 7 6 5 5 6 4 5 4 5 3 4 4 4 3 8 8 9 7 4 4 6 11 11 10 7 9 11 9 4 4 3 5 6 4 4 5 4 4 4 4
5 6 5 5 7 6 4 4 3 4 4 4 4 4 4 4 4 4 5 6 7 5 7 7 8 9 8 8 7 5 4 4 4 5 5 5 4 3 4 2 2 3 2
4 4 5 4 5 5 5 3 3 2 3 4 2 3 4 4 5 7 5 6 5 5 7 3 3 2 4 4 4 5 4 4 6 5 5 5 4 3 3 1 1 2 1
3 3 4 4 4 4 3 4 2 2 4 6 3 2 4 4 10 9 11 10 6 6 1 3 4 5 5 5 5 5 5 6 5 6 6 4 3 4 3 3 1 1 2
1 3 3 4 4 4 3 3 4 4 4 6 8 8 6 7 11 11 11 10 4 4 3 4 5 5 5 5 5 5 5 5 5 4 4 5 5 5 5 3 3 2 2
1 5 3 3 4 4 4 3 3 3 3 4 6 7 8 11 11 10 7 7 3 3 2 4 5 5 5 5 6 6 6 6 5 6 6 5 5 5 6 6 5 3 3
3 3 3 3 3 3 4 4 3 3 4 4 4 4 8 11 12 10 4 2 2 3 4 4 4 4 6 5 4 4 6 6 6 5 6 5 5 5 6 6 6 6 4
3 6 4 3 3 3 3 4 4 4 5 4 3 4 5 5 5 4 4 4 3 3 3 4 5 4 5 6 6 5 6 7 6 5 5 6 6 6 6 7 7 7 6
3 4 5 4 4 3 3 4 4 3 2 3 3 3 5 2 4 4 5 5 4 4 4 4 4 4 4 4 4 4 4 6 6 5 6 5 5 7 7 7 7 8 8
4 5 5 4 4 3 4 3 2 1 2 2 3 3 7 3 3 3 4 6 5 3 3 2 3 4 4 4 5 6 6 6 7 7 7 6 6 6 7 7 7 8 9
4 5 5 3 0 2 2 1 1 1 2 2 2 4 5 5 6 6 6 6 6 3 3 4 4 5 5 5 4 4 5 6 7 7 7 7 6 7 7 8 8 9 9
4 4 3 3 3 3 4 3 2 3 3 4 4 4 5 4 5 6 6 6 7 5 4 4 4 5 6 6 6 6 6 7 7 7 8 7 8 8 8 9 9 11 11
4 3 2 3 2 3 4 4 4 3 3 4 3 3 3 4 5 5 5 5 5 5 6 4 4 5 8 10 11 13 13 13 10 9 6 7 9 11 10 9 12 10 12
1 2 3 3 3 3 3 3 3 3 3 3 3 3 3 4 4 5 5 5 5 5 6 4 6 9 10 10 12 15 14 14 12 14 8 5 7 7 8 11 12 9 11
Wind_Direction
62 64 38 4 10 21 26 16 7 360 4 5 349 347 354 352 357 350 338 348 358 354 357 359 343 347 316 319 288 260 260 232 206 260 238 233 245 242 225 209 222 244 251
257 282 290 316 354 11 355 360 10 9 1 5 2 1 355 2 351 350 354 357 2 2 350 355 349 346 13 36 63 355 293 291 209 270 298 306 223 220 238 215 211 235 245
255 269 281 275 267 15 304 333 356 348 10 8 6 355 347 344 351 7 0 349 360 353 342 339 332 352 349 321 314 322 340 329 283 246 283 298 280 1 220 222 217 229 255
251 248 268 276 275 282 298 309 322 328 326 340 353 346 334 331 326 345 338 339 345 336 324 328 321 337 337 341 332 319 340 8 341 311 297 297 320 343 301 312 314 206 221
272 267 261 269 264 268 296 295 313 319 321 2 2 339 323 321 318 318 319 315 327 331 324 322 322 310 303 332 351 333 331 341 338 321 334 357 337 357 331 319 294 295 294
247 259 275 294 281 268 277 312 342 338 13 5 347 332 318 314 314 313 257 269 299 312 312 311 319 311 313 320 320 348 307 346 343 330 358 357 298 292 312 294 292 11 318
241 272 330 320 321 308 349 25 1 350 340 336 331 326 316 311 304 314 270 253 291 296 300 311 323 335 333 328 339 346 339 338 257 290 325 326 310 355 295 291 328 271 249
37 19 1 12 13 22 26 352 327 315 323 321 329 323 316 302 301 307 312 271 273 285 291 313 337 352 19 349 317 338 5 5 44 242 353 293 282 300 285 284 280 280 296
18 29 21 33 20 357 341 311 299 327 334 337 311 317 319 312 327 351 9 332 305 303 307 8 2 44 6 358 15 0 346 320 323 217 276 274 290 296 266 296 267 204 296
75 74 41 20 14 1 340 318 301 311 321 328 328 327 318 347 17 39 41 31 11 342 330 1 61 54 350 358 1 341 340 307 319 321 318 305 289 284 276 214 219 214 192
45 36 13 351 307 354 336 304 305 315 325 341 347 346 7 33 43 38 30 37 14 331 342 331 353 350 332 328 292 282 267 292 298 279 286 292 297 295 291 252 213 197 194
19 24 3 345 350 344 336 313 317 358 355 3 358 342 342 21 41 15 26 21 354 340 325 312 305 311 310 305 303 265 278 282 266 267 262 273 271 288 282 278 270 229 221
26 16 2 350 328 341 354 341 352 24 6 334 337 337 321 331 347 348 339 338 326 323 292 306 307 304 311 313 292 300 309 297 292 283 282 272 228 254 283 287 287 302 272
20 8 349 343 349 0 349 8 24 6 346 324 338 329 316 327 339 334 329 322 309 314 320 313 304 304 308 295 311 317 319 309 300 294 288 285 285 297 289 276 298 331 345
26 354 348 355 350 346 348 331 338 357 312 315 325 325 323 340 335 309 302 330 321 315 326 305 311 337 320 331 346 341 344 358 352 342 347 343 326 322 312 355 301 314 250
14 348 342 341 328 322 315 317 9 30 36 40 42 53 331 330 319 325 341 331 1 349 4 336 356 3 357 346 349 342 351 351 341 335 328 323 322 326 320 319 277 246 260
20 336 344 342 322 340 348 7 327 331 14 42 3 352 353 310 342 330 328 335 350 340 8 350 355 355 347 341 340 336 329 328 316 318 313 319 329 326 320 314 303 295 289
349 341 333 316 332 334 334 333 336 342 342 326 326 340 335 327 331 317 322 338 342 1 355 350 355 346 338 344 341 338 330 329 334 326 323 322 319 317 313 311 309 298 287
340 321 338 329 329 328 319 321 326 322 308 291 309 339 332 332 329 338 335 312 333 333 337 333 321 323 326 322 311 312 315 313 313 316 318 310 313 319 318 308 303 290 291
317 319 319 316 306 300 310 312 324 338 329 336 359 352 325 332 351 338 348 345 332 331 324 320 319 324 318 318 312 309 323 319 313 300 316 314 312 304 299 298 292 293 293
300 309 300 298 283 271 261 293 316 330 16 348 320 330 312 332 341 344 338 323 310 304 300 306 320 326 329 319 322 315 308 311 312 317 303 297 297 299 296 292 290 288 281
311 289 281 269 267 271 268 265 268 187 292 343 325 348 329 349 333 332 321 308 312 294 295 331 3 1 338 333 328 329 320 309 310 308 300 295 292 299 299 296 294 289 284
305 314 326 307 302 342 314 147 184 231 264 278 317 330 335 340 331 331 326 330 334 334 46 59 30 1 335 319 312 309 307 307 307 301 293 288 286 289 295 288 282 283 279
335 350 358 12 28 50 67 31 215 235 293 316 333 329 335 334 338 339 356 359 11 29 40 50 27 358 340 340 337 331 317 313 304 293 290 283 283 284 290 296 296 289 286
339 318 41 46 82 57 60 45 49 74 23 30 41 31 1 2 6 360 353 355 359 7 9 9 351 343 350 341 341 338 328 322 318 300 288 272 274 284 291 297 299 291 288
41 356 358 43 63 95 89 70 56 50 39 32 31 28 27 18 4 4 359 1 2 357 353 352 349 358 354 347 338 331 332 332 332 329 315 284 294 293 312 313 301 304 297